Weather History for Jersey, United Kingdom

Change the Weather History Date:

Friday, October 5, 2012

  Actual Average Record
Temperature  
Mean Temperature 60 °F -  
Max Temperature 65 °F 57 °F 68 °F (1997)
Min Temperature 55 °F 50 °F 46 °F (1999)
Degree Days  
Heating Degree Days 5    
Growing Degree Days 10 (Base 50)    
Moisture  
Dew Point 58 °F    
Average Humidity 86    
Maximum Humidity 88    
Minimum Humidity 79    
Precipitation  
Precipitation 0.00 in - - ()
Sea Level Pressure  
Sea Level Pressure 29.85 in    
Wind  
Wind Speed 18 mph ()    
Max Wind Speed 26 mph    
Max Gust Speed -    
Visibility 7.2 miles    
Events Rain    
Averages and records for this station are not official NWS values.
T = Trace of Precipitation, MM = Missing Value Source: Averaged Metar Reports

Daily Weather History Graph

Daily Weather History Graph

Search for Another Location

Airport:

Trip Planner

Search our weather history database for the weather conditions in past years. The results will help you decide how hot, cold, wet, or windy it might be!

Date:

Astronomy

Oct. 05, 2012 Rise Set
Actual Time 7:14 AM BST 6:38 PM BST
Civil Twilight 6:43 AM BST 7:10 PM BST
Nautical Twilight 6:06 AM BST 7:46 PM BST
Astronomical Twilight 5:28 AM BST 8:24 PM BST
Moon 9:24 PM BST (10/5) 12:35 PM BST (10/5)
Length of Visible Light 12h 27m
Length of Day
11h 23m
Waning Gibbous, 76% of the Moon is Illuminated
Oct 5
Waning Gibbous
Oct 8
Last Quarter
Oct 15
New
Oct 22
First Quarter
Oct 29
Full

Hourly Weather History & Observations

Time (BST) Temp. Dew Point Humidity Pressure Visibility Wind Dir Wind Speed Gust Speed Precip Events Conditions
1:00 AM 60 °F 56 °F 82% 29.80 in 9 mi SSW 24.2 mph - -   Mostly Cloudy
3:50 AM 60.8 °F 57.2 °F 88% 29.77 in 6.2 mi SW 25.3 mph - N/A   Partly Cloudy
4:00 AM 61 °F 57 °F 84% 29.78 in 11 mi SSW 23.0 mph - -   Mostly Cloudy
4:20 AM 60.8 °F 57.2 °F 88% 29.77 in 6.2 mi SW 19.6 mph - N/A   Partly Cloudy
4:50 AM 62.6 °F 59.0 °F 88% 29.77 in 6.2 mi SW 19.6 mph - N/A   Mostly Cloudy
5:20 AM 60.8 °F 57.2 °F 88% 29.77 in 6.2 mi SW 24.2 mph - N/A   Mostly Cloudy
5:50 AM 62.6 °F 57.2 °F 82% 29.77 in 6.2 mi SW 23.0 mph - N/A   Partly Cloudy
6:20 AM 62.6 °F 57.2 °F 82% 29.80 in 6.2 mi SW 24.2 mph - N/A   Mostly Cloudy
6:50 AM 62.6 °F 57.2 °F 82% 29.80 in 6.2 mi SW 21.9 mph - N/A   Mostly Cloudy
7:00 AM 62 °F 58 °F 81% 29.81 in 11 mi SW 25.3 mph - -   Mostly Cloudy
7:20 AM 62.6 °F 57.2 °F 82% 29.80 in 6.2 mi SW 25.3 mph - N/A   Mostly Cloudy
7:50 AM 62.6 °F 59.0 °F 88% 29.80 in 6.2 mi SW 23.0 mph - N/A   Mostly Cloudy
8:20 AM 62.6 °F 59.0 °F 88% 29.80 in 6.2 mi WSW 21.9 mph - N/A   Mostly Cloudy
8:50 AM 62.6 °F 59.0 °F 88% 29.83 in 6.2 mi WSW 24.2 mph - N/A   Light Drizzle
9:20 AM 62.6 °F 59.0 °F 88% 29.83 in 6.2 mi WSW 26.5 mph - N/A   Mostly Cloudy
9:50 AM 62.6 °F 59.0 °F 88% 29.86 in 6.2 mi WSW 21.9 mph - N/A   Mostly Cloudy
10:00 AM 62 °F 59 °F 86% 29.86 in 9 mi WSW 24.2 mph - - Rain Light Rain
10:20 AM 62.6 °F 59.0 °F 88% 29.86 in 6.2 mi WSW 21.9 mph - N/A   Mostly Cloudy
10:50 AM 62.6 °F 59.0 °F 88% 29.86 in 6.2 mi WSW 19.6 mph - N/A   Mostly Cloudy
11:20 AM 62.6 °F 59.0 °F 88% 29.86 in 6.2 mi WSW 18.4 mph - N/A   Mostly Cloudy
11:50 AM 64.4 °F 60.8 °F 88% 29.86 in 6.2 mi WSW 18.4 mph - N/A   Mostly Cloudy
12:20 PM 64.4 °F 60.8 °F 88% 29.86 in 6.2 mi WSW 20.7 mph - N/A   Mostly Cloudy
12:50 PM 64.4 °F 59.0 °F 83% 29.89 in 6.2 mi SW 20.7 mph - N/A   Mostly Cloudy
1:00 PM 64 °F 59 °F 79% 29.88 in 11 mi SW 17.3 mph - -   Partly Cloudy
1:20 PM 64.4 °F 60.8 °F 88% 29.89 in 6.2 mi WSW 15.0 mph - N/A   Mostly Cloudy
1:50 PM 64.4 °F 60.8 °F 88% 29.89 in 6.2 mi WSW 12.7 mph - N/A   Mostly Cloudy
2:20 PM 64.4 °F 60.8 °F 88% 29.89 in 6.2 mi WSW 11.5 mph - N/A   Mostly Cloudy
2:50 PM 64.4 °F 59.0 °F 83% 29.89 in 6.2 mi WSW 11.5 mph - N/A   Mostly Cloudy
3:20 PM 64.4 °F 59.0 °F 83% 29.89 in 6.2 mi WSW 11.5 mph - N/A   Mostly Cloudy
3:50 PM 64.4 °F 59.0 °F 83% 29.89 in 6.2 mi WSW 11.5 mph - N/A   Mostly Cloudy
4:00 PM 63 °F 59 °F 81% 29.88 in 19 mi SW 11.5 mph - -   Mostly Cloudy
4:20 PM 62.6 °F 59.0 °F 88% 29.86 in 6.2 mi WSW 10.4 mph - N/A   Mostly Cloudy
4:50 PM 62.6 °F 59.0 °F 88% 29.89 in 6.2 mi WSW 10.4 mph - N/A   Mostly Cloudy
5:20 PM 62.6 °F 59.0 °F 88% 29.89 in 6.2 mi WSW 10.4 mph - N/A   Mostly Cloudy
5:50 PM 62.6 °F 59.0 °F 88% 29.89 in 6.2 mi WSW 6.9 mph - N/A   Mostly Cloudy
6:20 PM 62.6 °F 59.0 °F 88% 29.89 in 6.2 mi WSW 12.7 mph - N/A   Mostly Cloudy
6:50 PM 62.6 °F 59.0 °F 88% 29.89 in 6.2 mi WSW 11.5 mph - N/A   Mostly Cloudy
7:00 PM 62 °F 58 °F 84% 29.88 in 22 mi WSW 13.8 mph - -   Mostly Cloudy
7:20 PM 62.6 °F 57.2 °F 82% 29.86 in 6.2 mi SW 10.4 mph - N/A   Mostly Cloudy
7:50 PM 62.6 °F 57.2 °F 82% 29.86 in 6.2 mi SW 11.5 mph - N/A   Scattered Clouds
8:20 PM 60.8 °F 57.2 °F 88% 29.86 in 6.2 mi SSW 13.8 mph - N/A   Scattered Clouds
8:50 PM 60.8 °F 57.2 °F 88% 29.86 in 6.2 mi SSW 13.8 mph - N/A   Partly Cloudy
9:20 PM 60.8 °F 57.2 °F 88% 29.86 in 6.2 mi SSW 13.8 mph - N/A   Partly Cloudy
9:50 PM 60.8 °F 57.2 °F 88% 29.86 in 6.2 mi South 12.7 mph - N/A   Mostly Cloudy
10:00 PM 61 °F 58 °F 85% 29.87 in 19 mi SSW 13.8 mph - -   Mostly Cloudy
10:20 PM 60.8 °F 57.2 °F 88% 29.86 in 6.2 mi South 16.1 mph - N/A   Scattered Clouds
11:20 PM 60.8 °F 57.2 °F 88% 29.83 in 6.2 mi SSW 12.7 mph - N/A   Mostly Cloudy